Torna al catalogo

OPS 4682 DEB

AttivoPO
NORAD 38388·DEBRIS·🇺🇸 United States

Lanciato Apr 3, 1965 da Vandenberg Space Force Base

Loading…

Prossimi Passaggi (prossime 24 ore)

TLE

In scadenzaSource: Space-Track

Epoca: Sep 9, 2026, 08:31 UTC

1 38388U 65027CR  26252.35518587  .00001690  00000-0  55233-2 0  9995
2 38388  90.2751  25.1431 0038111 130.0519 230.3956 13.00637437675005

Traccia OPS 4682 DEB in tempo reale con AllMySat

Download on the App Store